Time,TemperatureF,DewpointF,PressureIn,WindDirection,WindDirectionDegrees,WindSpeedMPH,WindSpeedGustMPH,Humidity,HourlyPrecipIn,Conditions,Clouds,dailyrainin,SoftwareType,DateUTC
2013-02-12 00:04:00,32.8,25.4,29.91,West,267,14.0,14.0,74,0.00,,,0.00,Wunderground v.1.15,2013-02-12 05:04:00,
2013-02-12 00:09:00,32.7,25.3,29.91,West,279,13.0,13.0,74,0.00,,,0.00,Wunderground v.1.15,2013-02-12 05:09:00,
2013-02-12 00:14:00,32.7,25.0,29.91,West,267,14.0,16.0,73,0.00,,,0.00,Wunderground v.1.15,2013-02-12 05:14:00,
2013-02-12 00:19:00,32.6,24.9,29.91,WSW,252,15.0,15.0,73,0.00,,,0.00,Wunderground v.1.15,2013-02-12 05:19:00,
2013-02-12 00:29:00,32.5,25.1,29.92,West,263,15.0,15.0,74,0.00,,,0.00,Wunderground v.1.15,2013-02-12 05:29:00,
2013-02-12 00:34:00,32.5,25.1,29.92,West,261,14.0,15.0,74,0.00,,,0.00,Wunderground v.1.15,2013-02-12 05:34:00,
2013-02-12 00:39:00,32.4,25.0,29.92,West,260,12.0,12.0,74,0.00,,,0.00,Wunderground v.1.15,2013-02-12 05:39:00,
2013-02-12 00:44:00,32.4,25.4,29.92,West,262,12.0,15.0,75,0.00,,,0.00,Wunderground v.1.15,2013-02-12 05:44:00,
2013-02-12 00:49:00,32.5,24.8,29.93,West,269,13.0,13.0,73,0.00,,,0.00,Wunderground v.1.15,2013-02-12 05:49:00,
2013-02-12 00:54:00,32.4,25.0,29.93,WSW,254,14.0,14.0,74,0.00,,,0.00,Wunderground v.1.15,2013-02-12 05:54:00,
2013-02-12 00:59:00,32.3,24.9,29.93,West,261,12.0,13.0,74,0.00,,,0.00,Wunderground v.1.15,2013-02-12 05:59:00,
2013-02-12 01:09:00,32.3,24.9,29.93,West,269,13.0,13.0,74,0.00,,,0.00,Wunderground v.1.15,2013-02-12 06:09:00,
2013-02-12 01:14:00,32.3,24.9,29.93,WSW,258,12.0,13.0,74,0.00,,,0.00,Wunderground v.1.15,2013-02-12 06:14:00,
2013-02-12 01:19:00,32.3,24.6,29.94,West,263,14.0,14.0,73,0.00,,,0.00,Wunderground v.1.15,2013-02-12 06:19:00,
2013-02-12 01:24:00,32.3,24.6,29.94,West,275,14.0,15.0,73,0.00,,,0.00,Wunderground v.1.15,2013-02-12 06:24:00,
2013-02-12 01:29:00,32.3,24.6,29.93,West,263,14.0,14.0,73,0.00,,,0.00,Wunderground v.1.15,2013-02-12 06:29:00,
2013-02-12 01:34:00,32.3,24.6,29.94,West,265,14.0,14.0,73,0.00,,,0.00,Wunderground v.1.15,2013-02-12 06:34:00,
2013-02-12 01:44:00,32.3,24.9,29.94,West,265,12.0,16.0,74,0.00,,,0.00,Wunderground v.1.15,2013-02-12 06:44:00,
2013-02-12 01:49:00,32.3,24.6,29.94,West,278,13.0,17.0,73,0.00,,,0.00,Wunderground v.1.15,2013-02-12 06:49:00,
2013-02-12 01:54:00,32.2,24.5,29.94,WNW,284,14.0,17.0,73,0.00,,,0.00,Wunderground v.1.15,2013-02-12 06:54:00,
2013-02-12 02:04:00,32.2,24.8,29.95,West,270,12.0,13.0,74,0.00,,,0.00,Wunderground v.1.15,2013-02-12 07:04:00,
2013-02-12 02:14:00,32.1,24.7,29.95,West,265,11.0,11.0,74,0.00,,,0.00,Wunderground v.1.15,2013-02-12 07:14:00,
2013-02-12 02:19:00,32.1,24.7,29.95,West,271,10.0,11.0,74,0.00,,,0.00,Wunderground v.1.15,2013-02-12 07:19:00,
2013-02-12 02:24:00,32.1,24.7,29.95,West,260,11.0,11.0,74,0.00,,,0.00,Wunderground v.1.15,2013-02-12 07:24:00,
2013-02-12 02:29:00,32.0,25.0,29.95,WSW,247,11.0,11.0,75,0.00,,,0.00,Wunderground v.1.15,2013-02-12 07:29:00,
2013-02-12 02:34:00,32.0,25.0,29.96,WSW,247,10.0,11.0,75,0.00,,,0.00,Wunderground v.1.15,2013-02-12 07:34:00,
2013-02-12 02:39:00,31.9,25.2,29.96,West,263,9.0,9.0,76,0.00,,,0.00,Wunderground v.1.15,2013-02-12 07:39:00,
2013-02-12 02:44:00,32.0,25.3,29.96,West,260,9.0,9.0,76,0.00,,,0.00,Wunderground v.1.15,2013-02-12 07:44:00,
2013-02-12 02:54:00,31.9,25.2,29.97,West,275,11.0,13.0,76,0.00,,,0.00,Wunderground v.1.15,2013-02-12 07:54:00,
2013-02-12 02:59:00,31.9,24.9,29.97,West,265,12.0,17.0,75,0.00,,,0.00,Wunderground v.1.15,2013-02-12 07:59:00,
2013-02-12 03:09:00,31.9,24.9,29.97,West,261,13.0,13.0,75,0.00,,,0.00,Wunderground v.1.15,2013-02-12 08:09:00,
2013-02-12 03:14:00,31.8,24.8,29.97,West,260,12.0,13.0,75,0.00,,,0.00,Wunderground v.1.15,2013-02-12 08:14:00,
2013-02-12 03:19:00,31.7,25.0,29.97,WSW,252,13.0,15.0,76,0.00,,,0.00,Wunderground v.1.15,2013-02-12 08:19:00,
2013-02-12 03:24:00,31.7,24.7,29.97,West,259,13.0,15.0,75,0.00,,,0.00,Wunderground v.1.15,2013-02-12 08:24:00,
2013-02-12 03:34:00,31.7,24.7,29.97,WSW,252,13.0,13.0,75,0.00,,,0.00,Wunderground v.1.15,2013-02-12 08:34:00,
2013-02-12 03:39:00,31.6,24.6,29.97,West,271,12.0,14.0,75,0.00,,,0.00,Wunderground v.1.15,2013-02-12 08:39:00,
2013-02-12 03:44:00,31.6,24.6,29.98,WSW,252,13.0,17.0,75,0.00,,,0.00,Wunderground v.1.15,2013-02-12 08:44:00,
2013-02-12 03:49:00,31.5,24.2,29.98,WSW,254,14.0,14.0,74,0.00,,,0.00,Wunderground v.1.15,2013-02-12 08:49:00,
2013-02-12 03:54:00,31.5,24.5,29.98,WSW,249,14.0,14.0,75,0.00,,,0.00,Wunderground v.1.15,2013-02-12 08:54:00,
2013-02-12 03:59:00,31.5,24.5,29.98,WSW,245,12.0,12.0,75,0.00,,,0.00,Wunderground v.1.15,2013-02-12 08:59:00,
2013-02-12 04:09:00,31.4,24.7,29.98,West,260,11.0,11.0,76,0.00,,,0.00,Wunderground v.1.15,2013-02-12 09:09:00,
2013-02-12 04:14:00,31.4,24.7,29.98,WSW,256,11.0,12.0,76,0.00,,,0.00,Wunderground v.1.15,2013-02-12 09:14:00,
2013-02-12 04:19:00,31.4,24.7,29.98,WSW,258,12.0,15.0,76,0.00,,,0.00,Wunderground v.1.15,2013-02-12 09:19:00,
2013-02-12 04:24:00,31.4,25.0,29.99,WSW,256,12.0,15.0,77,0.00,,,0.00,Wunderground v.1.15,2013-02-12 09:24:00,
2013-02-12 04:29:00,31.3,24.9,29.99,WSW,256,11.0,11.0,77,0.00,,,0.00,Wunderground v.1.15,2013-02-12 09:29:00,
2013-02-12 04:34:00,31.3,24.6,29.99,West,263,11.0,11.0,76,0.00,,,0.00,Wunderground v.1.15,2013-02-12 09:34:00,
2013-02-12 04:44:00,31.3,24.6,29.99,West,265,11.0,12.0,76,0.00,,,0.00,Wunderground v.1.15,2013-02-12 09:44:00,
2013-02-12 04:49:00,31.4,24.7,29.99,West,269,10.0,10.0,76,0.00,,,0.00,Wunderground v.1.15,2013-02-12 09:49:00,
2013-02-12 04:54:00,31.3,24.6,29.99,West,261,10.0,10.0,76,0.00,,,0.00,Wunderground v.1.15,2013-02-12 09:54:00,
2013-02-12 04:59:00,31.3,25.2,30.00,WSW,258,9.0,10.0,78,0.00,,,0.00,Wunderground v.1.15,2013-02-12 09:59:00,
2013-02-12 05:09:00,31.3,24.9,30.00,WSW,258,10.0,12.0,77,0.00,,,0.00,Wunderground v.1.15,2013-02-12 10:09:00,
2013-02-12 05:14:00,31.3,24.9,30.00,West,262,10.0,12.0,77,0.00,,,0.00,Wunderground v.1.15,2013-02-12 10:14:00,
2013-02-12 05:19:00,31.3,24.9,30.00,West,259,10.0,10.0,77,0.00,,,0.00,Wunderground v.1.15,2013-02-12 10:19:00,
2013-02-12 05:24:00,31.3,24.9,30.00,West,267,10.0,10.0,77,0.00,,,0.00,Wunderground v.1.15,2013-02-12 10:24:00,
2013-02-12 05:34:00,31.4,25.3,30.01,West,267,10.0,11.0,78,0.00,,,0.00,Wunderground v.1.15,2013-02-12 10:34:00,
2013-02-12 05:39:00,31.3,24.9,30.00,WSW,251,9.0,10.0,77,0.00,,,0.00,Wunderground v.1.15,2013-02-12 10:39:00,
2013-02-12 05:44:00,31.3,24.9,30.01,West,268,9.0,11.0,77,0.00,,,0.00,Wunderground v.1.15,2013-02-12 10:44:00,
2013-02-12 05:49:00,31.3,24.9,30.01,West,271,10.0,14.0,77,0.00,,,0.00,Wunderground v.1.15,2013-02-12 10:49:00,
2013-02-12 05:54:00,31.3,24.9,30.01,West,262,10.0,14.0,77,0.00,,,0.00,Wunderground v.1.15,2013-02-12 10:54:00,
2013-02-12 05:59:00,31.3,24.9,30.01,West,259,9.0,12.0,77,0.00,,,0.00,Wunderground v.1.15,2013-02-12 10:59:00,
2013-02-12 06:09:00,31.3,24.9,30.01,West,265,9.0,9.0,77,0.00,,,0.00,Wunderground v.1.15,2013-02-12 11:09:00,
2013-02-12 06:14:00,31.3,24.9,30.01,West,261,9.0,10.0,77,0.00,,,0.00,Wunderground v.1.15,2013-02-12 11:14:00,
2013-02-12 06:19:00,31.3,24.9,30.01,West,259,9.0,11.0,77,0.00,,,0.00,Wunderground v.1.15,2013-02-12 11:19:00,
2013-02-12 06:24:00,31.4,24.7,30.02,WSW,257,10.0,11.0,76,0.00,,,0.00,Wunderground v.1.15,2013-02-12 11:24:00,
2013-02-12 06:29:00,31.3,24.6,30.02,WSW,258,12.0,12.0,76,0.00,,,0.00,Wunderground v.1.15,2013-02-12 11:29:00,
2013-02-12 06:39:00,31.4,24.4,30.02,West,277,13.0,13.0,75,0.00,,,0.00,Wunderground v.1.15,2013-02-12 11:39:00,
2013-02-12 06:44:00,31.3,24.3,30.03,West,259,14.0,14.0,75,0.00,,,0.00,Wunderground v.1.15,2013-02-12 11:44:00,
2013-02-12 06:49:00,31.3,24.3,30.03,West,267,12.0,12.0,75,0.00,,,0.00,Wunderground v.1.15,2013-02-12 11:49:00,
2013-02-12 06:59:00,31.3,24.3,30.03,West,270,11.0,11.0,75,0.00,,,0.00,Wunderground v.1.15,2013-02-12 11:59:00,
2013-02-12 07:04:00,31.2,24.2,30.03,West,272,10.0,11.0,75,0.00,,,0.00,Wunderground v.1.15,2013-02-12 12:04:00,
2013-02-12 07:09:00,31.2,24.2,30.03,West,265,10.0,13.0,75,0.00,,,0.00,Wunderground v.1.15,2013-02-12 12:09:00,
2013-02-12 07:14:00,31.2,24.2,30.04,West,280,10.0,13.0,75,0.00,,,0.00,Wunderground v.1.15,2013-02-12 12:14:00,
2013-02-12 07:19:00,31.2,24.2,30.04,West,279,10.0,12.0,75,0.00,,,0.00,Wunderground v.1.15,2013-02-12 12:19:00,
2013-02-12 07:29:00,31.1,24.4,30.04,West,261,10.0,10.0,76,0.00,,,0.00,Wunderground v.1.15,2013-02-12 12:29:00,
2013-02-12 07:34:00,31.1,24.4,30.04,West,266,9.0,10.0,76,0.00,,,0.00,Wunderground v.1.15,2013-02-12 12:34:00,
2013-02-12 07:39:00,31.1,24.7,30.04,West,270,8.0,8.0,77,0.00,,,0.00,Wunderground v.1.15,2013-02-12 12:39:00,
2013-02-12 07:44:00,31.0,24.3,30.04,West,263,7.0,10.0,76,0.00,,,0.00,Wunderground v.1.15,2013-02-12 12:44:00,
2013-02-12 07:49:00,31.0,24.6,30.04,West,267,7.0,7.0,77,0.00,,,0.00,Wunderground v.1.15,2013-02-12 12:49:00,
2013-02-12 07:54:00,31.0,24.6,30.05,West,259,7.0,7.0,77,0.00,,,0.00,Wunderground v.1.15,2013-02-12 12:54:00,
2013-02-12 07:59:00,31.0,24.6,30.05,West,277,8.0,8.0,77,0.00,,,0.00,Wunderground v.1.15,2013-02-12 12:59:00,
2013-02-12 08:09:00,31.0,24.9,30.05,West,262,6.0,6.0,78,0.00,,,0.00,Wunderground v.1.15,2013-02-12 13:09:00,
2013-02-12 08:14:00,31.0,25.2,30.05,West,263,6.0,7.0,79,0.00,,,0.00,Wunderground v.1.15,2013-02-12 13:14:00,
2013-02-12 08:19:00,30.9,24.8,30.05,West,269,7.0,14.0,78,0.00,,,0.00,Wunderground v.1.15,2013-02-12 13:19:00,
2013-02-12 08:29:00,30.8,24.7,30.05,West,269,10.0,10.0,78,0.00,,,0.00,Wunderground v.1.15,2013-02-12 13:29:00,
2013-02-12 08:34:00,30.8,24.7,30.06,WSW,257,10.0,10.0,78,0.00,,,0.00,Wunderground v.1.15,2013-02-12 13:34:00,
2013-02-12 08:39:00,30.9,24.8,30.06,WSW,255,8.0,10.0,78,0.00,,,0.00,Wunderground v.1.15,2013-02-12 13:39:00,
2013-02-12 08:44:00,30.8,25.1,30.06,West,268,7.0,10.0,79,0.00,,,0.00,Wunderground v.1.15,2013-02-12 13:44:00,
2013-02-12 08:49:00,30.8,24.7,30.06,West,264,8.0,9.0,78,0.00,,,0.00,Wunderground v.1.15,2013-02-12 13:49:00,
2013-02-12 08:54:00,30.8,24.7,30.06,West,260,9.0,10.0,78,0.00,,,0.00,Wunderground v.1.15,2013-02-12 13:54:00,
2013-02-12 08:59:00,30.8,24.7,30.06,West,267,10.0,11.0,78,0.00,,,0.00,Wunderground v.1.15,2013-02-12 13:59:00,
2013-02-12 09:09:00,30.8,24.7,30.06,WSW,254,10.0,12.0,78,0.00,,,0.00,Wunderground v.1.15,2013-02-12 14:09:00,
2013-02-12 09:14:00,30.8,24.7,30.06,WSW,248,10.0,12.0,78,0.00,,,0.00,Wunderground v.1.15,2013-02-12 14:14:00,
2013-02-12 09:19:00,30.8,24.4,30.07,WSW,252,10.0,12.0,77,0.00,,,0.00,Wunderground v.1.15,2013-02-12 14:19:00,
2013-02-12 09:24:00,30.8,24.7,30.06,West,263,10.0,12.0,78,0.00,,,0.00,Wunderground v.1.15,2013-02-12 14:24:00,
2013-02-12 09:29:00,30.9,24.5,30.06,West,262,10.0,10.0,77,0.00,,,0.00,Wunderground v.1.15,2013-02-12 14:29:00,
2013-02-12 09:39:00,30.9,24.5,30.06,West,259,10.0,10.0,77,0.00,,,0.00,Wunderground v.1.15,2013-02-12 14:39:00,
2013-02-12 09:44:00,31.0,24.6,30.06,WSW,257,10.0,10.0,77,0.00,,,0.00,Wunderground v.1.15,2013-02-12 14:44:00,
2013-02-12 09:49:00,31.0,24.6,30.07,WSW,253,10.0,10.0,77,0.00,,,0.00,Wunderground v.1.15,2013-02-12 14:49:00,
2013-02-12 09:54:00,31.0,24.3,30.07,West,259,10.0,12.0,76,0.00,,,0.00,Wunderground v.1.15,2013-02-12 14:54:00,
2013-02-12 09:59:00,31.0,24.3,30.07,WSW,257,11.0,11.0,76,0.00,,,0.00,Wunderground v.1.15,2013-02-12 14:59:00,
2013-02-12 10:09:00,31.2,24.5,30.07,WSW,258,9.0,9.0,76,0.00,,,0.00,Wunderground v.1.15,2013-02-12 15:09:00,
2013-02-12 10:14:00,31.2,24.5,30.07,WSW,257,9.0,12.0,76,0.00,,,0.00,Wunderground v.1.15,2013-02-12 15:14:00,
2013-02-12 10:19:00,31.3,25.2,30.07,WSW,246,10.0,10.0,78,0.00,,,0.00,Wunderground v.1.15,2013-02-12 15:19:00,
2013-02-12 10:24:00,31.4,25.3,30.06,WSW,245,9.0,10.0,78,0.00,,,0.00,Wunderground v.1.15,2013-02-12 15:24:00,
2013-02-12 10:29:00,31.3,24.9,30.07,WSW,247,9.0,10.0,77,0.00,,,0.00,Wunderground v.1.15,2013-02-12 15:29:00,
2013-02-12 10:39:00,31.1,24.7,30.07,WSW,250,10.0,10.0,77,0.00,,,0.00,Wunderground v.1.15,2013-02-12 15:39:00,
2013-02-12 10:44:00,31.1,24.7,30.07,WSW,245,10.0,10.0,77,0.00,,,0.00,Wunderground v.1.15,2013-02-12 15:44:00,
2013-02-12 10:49:00,31.1,25.0,30.07,WSW,247,9.0,9.0,78,0.00,,,0.00,Wunderground v.1.15,2013-02-12 15:49:00,
2013-02-12 10:59:00,31.1,24.7,30.07,West,264,9.0,10.0,77,0.00,,,0.00,Wunderground v.1.15,2013-02-12 15:59:00,
2013-02-12 11:04:00,31.1,24.7,30.07,West,263,10.0,10.0,77,0.00,,,0.00,Wunderground v.1.15,2013-02-12 16:04:00,
2013-02-12 11:14:00,31.3,24.9,30.07,WSW,258,9.0,10.0,77,0.00,,,0.00,Wunderground v.1.15,2013-02-12 16:14:00,
2013-02-12 11:19:00,31.3,24.6,30.06,WSW,252,9.0,10.0,76,0.00,,,0.00,Wunderground v.1.15,2013-02-12 16:19:00,
2013-02-12 11:24:00,31.3,24.6,30.05,WSW,258,10.0,10.0,76,0.00,,,0.00,Wunderground v.1.15,2013-02-12 16:24:00,
2013-02-12 11:29:00,31.6,25.2,30.05,WSW,245,9.0,9.0,77,0.00,,,0.00,Wunderground v.1.15,2013-02-12 16:29:00,
2013-02-12 11:34:00,31.7,25.0,30.06,SW,227,8.0,9.0,76,0.00,,,0.00,Wunderground v.1.15,2013-02-12 16:34:00,
2013-02-12 11:39:00,31.8,25.1,30.06,WSW,250,9.0,14.0,76,0.00,,,0.00,Wunderground v.1.15,2013-02-12 16:39:00,
2013-02-12 11:44:00,31.8,24.8,30.06,SW,231,11.0,14.0,75,0.00,,,0.00,Wunderground v.1.15,2013-02-12 16:44:00,
2013-02-12 11:54:00,31.9,24.6,30.06,WSW,252,9.0,15.0,74,0.00,,,0.00,Wunderground v.1.15,2013-02-12 16:54:00,
2013-02-12 11:59:00,31.7,24.4,30.06,WSW,249,11.0,12.0,74,0.00,,,0.00,Wunderground v.1.15,2013-02-12 16:59:00,
2013-02-12 12:04:00,31.8,24.8,30.06,WSW,251,12.0,12.0,75,0.00,,,0.00,Wunderground v.1.15,2013-02-12 17:04:00,
2013-02-12 12:09:00,31.9,24.9,30.07,WSW,254,11.0,12.0,75,0.00,,,0.00,Wunderground v.1.15,2013-02-12 17:09:00,
2013-02-12 12:19:00,31.9,24.6,30.07,West,266,13.0,13.0,74,0.00,,,0.00,Wunderground v.1.15,2013-02-12 17:19:00,
2013-02-12 12:24:00,31.9,24.6,30.06,West,266,12.0,13.0,74,0.00,,,0.00,Wunderground v.1.15,2013-02-12 17:24:00,
2013-02-12 12:29:00,32.0,25.0,30.07,WSW,257,11.0,14.0,75,0.00,,,0.00,Wunderground v.1.15,2013-02-12 17:29:00,
2013-02-12 12:34:00,32.1,24.7,30.06,West,267,11.0,14.0,74,0.00,,,0.00,Wunderground v.1.15,2013-02-12 17:34:00,
2013-02-12 12:39:00,32.1,24.7,30.06,WSW,251,10.0,10.0,74,0.00,,,0.00,Wunderground v.1.15,2013-02-12 17:39:00,
2013-02-12 12:44:00,32.2,24.8,30.06,WSW,257,10.0,10.0,74,0.00,,,0.00,Wunderground v.1.15,2013-02-12 17:44:00,
2013-02-12 12:49:00,32.5,25.5,30.05,WSW,250,10.0,14.0,75,0.00,,,0.00,Wunderground v.1.15,2013-02-12 17:49:00,
2013-02-12 12:54:00,32.6,25.6,30.04,WSW,238,9.0,14.0,75,0.00,,,0.00,Wunderground v.1.15,2013-02-12 17:54:00,
2013-02-12 13:04:00,32.6,24.9,30.03,WSW,237,10.0,10.0,73,0.00,,,0.00,Wunderground v.1.15,2013-02-12 18:04:00,
2013-02-12 13:09:00,33.0,25.6,30.01,WSW,243,10.0,11.0,74,0.00,,,0.00,Wunderground v.1.15,2013-02-12 18:09:00,
2013-02-12 13:14:00,33.3,25.9,30.01,WSW,247,10.0,11.0,74,0.00,,,0.00,Wunderground v.1.15,2013-02-12 18:14:00,
2013-02-12 13:19:00,32.9,24.9,30.00,West,266,10.0,11.0,72,0.00,,,0.00,Wunderground v.1.15,2013-02-12 18:19:00,
2013-02-12 13:29:00,33.3,25.2,29.99,West,268,10.0,11.0,72,0.00,,,0.00,Wunderground v.1.15,2013-02-12 18:29:00,
2013-02-12 13:34:00,33.1,25.1,29.98,West,268,9.0,11.0,72,0.00,,,0.00,Wunderground v.1.15,2013-02-12 18:34:00,
2013-02-12 13:39:00,33.2,26.1,29.98,WSW,246,8.0,8.0,75,0.00,,,0.00,Wunderground v.1.15,2013-02-12 18:39:00,
2013-02-12 13:44:00,33.3,25.9,29.98,WSW,244,8.0,9.0,74,0.00,,,0.00,Wunderground v.1.15,2013-02-12 18:44:00,
2013-02-12 13:54:00,33.3,25.9,29.97,WSW,244,8.0,10.0,74,0.00,,,0.00,Wunderground v.1.15,2013-02-12 18:54:00,
2013-02-12 13:59:00,33.4,25.7,29.97,WSW,255,9.0,10.0,73,0.00,,,0.00,Wunderground v.1.15,2013-02-12 18:59:00,
2013-02-12 14:09:00,33.3,26.2,29.97,SW,230,8.0,10.0,75,0.00,,,0.00,Wunderground v.1.15,2013-02-12 19:09:00,
2013-02-12 14:14:00,33.8,27.4,29.97,SW,229,8.0,10.0,77,0.00,,,0.00,Wunderground v.1.15,2013-02-12 19:14:00,
2013-02-12 14:19:00,33.8,26.7,29.96,WSW,240,9.0,9.0,75,0.00,,,0.00,Wunderground v.1.15,2013-02-12 19:19:00,
2013-02-12 14:24:00,33.6,26.5,29.97,SW,233,9.0,9.0,75,0.00,,,0.00,Wunderground v.1.15,2013-02-12 19:24:00,
2013-02-12 14:34:00,33.6,26.8,29.98,WSW,249,9.0,9.0,76,0.00,,,0.00,Wunderground v.1.15,2013-02-12 19:34:00,
2013-02-12 14:39:00,33.5,26.1,29.97,West,265,8.0,11.0,74,0.00,,,0.00,Wunderground v.1.15,2013-02-12 19:39:00,
2013-02-12 14:49:00,34.0,25.9,29.98,West,277,10.0,10.0,72,0.00,,,0.00,Wunderground v.1.15,2013-02-12 19:49:00,
2013-02-12 14:54:00,33.7,25.6,29.98,WNW,285,10.0,10.0,72,0.00,,,0.00,Wunderground v.1.15,2013-02-12 19:54:00,
2013-02-12 14:59:00,33.8,25.4,29.97,West,281,10.0,10.0,71,0.00,,,0.00,Wunderground v.1.15,2013-02-12 19:59:00,
2013-02-12 15:09:00,34.4,26.0,29.98,WSW,248,10.0,12.0,71,0.00,,,0.00,Wunderground v.1.15,2013-02-12 20:09:00,
2013-02-12 15:14:00,34.6,27.2,29.98,WSW,250,10.0,12.0,74,0.00,,,0.00,Wunderground v.1.15,2013-02-12 20:14:00,
2013-02-12 15:19:00,34.8,26.7,29.98,WSW,246,10.0,15.0,72,0.00,,,0.00,Wunderground v.1.15,2013-02-12 20:19:00,
2013-02-12 15:24:00,34.4,26.0,29.98,West,261,12.0,15.0,71,0.00,,,0.00,Wunderground v.1.15,2013-02-12 20:24:00,
2013-02-12 15:34:00,34.0,26.3,29.99,West,265,10.0,12.0,73,0.00,,,0.00,Wunderground v.1.15,2013-02-12 20:34:00,
2013-02-12 15:39:00,34.3,26.2,29.99,WSW,254,9.0,14.0,72,0.00,,,0.00,Wunderground v.1.15,2013-02-12 20:39:00,
2013-02-12 15:44:00,34.6,26.5,29.99,West,269,11.0,14.0,72,0.00,,,0.00,Wunderground v.1.15,2013-02-12 20:44:00,
2013-02-12 15:49:00,34.8,26.7,29.98,WSW,257,11.0,11.0,72,0.00,,,0.00,Wunderground v.1.15,2013-02-12 20:49:00,
2013-02-12 15:59:00,34.6,26.2,29.98,SW,232,10.0,10.0,71,0.00,,,0.00,Wunderground v.1.15,2013-02-12 20:59:00,
2013-02-12 16:09:00,34.4,26.3,29.98,WSW,248,9.0,9.0,72,0.00,,,0.00,Wunderground v.1.15,2013-02-12 21:09:00,
2013-02-12 16:14:00,34.4,26.6,29.99,WSW,247,9.0,9.0,73,0.00,,,0.00,Wunderground v.1.15,2013-02-12 21:14:00,
2013-02-12 16:19:00,34.4,26.3,29.98,WSW,252,9.0,9.0,72,0.00,,,0.00,Wunderground v.1.15,2013-02-12 21:19:00,
2013-02-12 16:24:00,34.2,26.1,29.98,SW,232,11.0,11.0,72,0.00,,,0.00,Wunderground v.1.15,2013-02-12 21:24:00,
2013-02-12 16:29:00,34.2,26.1,29.98,WSW,248,11.0,13.0,72,0.00,,,0.00,Wunderground v.1.15,2013-02-12 21:29:00,
2013-02-12 16:34:00,34.2,26.1,29.98,West,264,11.0,13.0,72,0.00,,,0.00,Wunderground v.1.15,2013-02-12 21:34:00,
2013-02-12 16:44:00,34.0,26.3,29.99,WSW,255,11.0,14.0,73,0.00,,,0.00,Wunderground v.1.15,2013-02-12 21:44:00,
2013-02-12 16:49:00,34.0,25.9,29.98,WSW,242,11.0,11.0,72,0.00,,,0.00,Wunderground v.1.15,2013-02-12 21:49:00,
2013-02-12 16:54:00,33.9,26.2,29.99,WSW,242,11.0,12.0,73,0.00,,,0.00,Wunderground v.1.15,2013-02-12 21:54:00,
2013-02-12 16:59:00,33.9,26.2,29.98,WSW,251,11.0,13.0,73,0.00,,,0.00,Wunderground v.1.15,2013-02-12 21:59:00,
2013-02-12 17:09:00,33.9,25.8,29.98,West,260,10.0,10.0,72,0.00,,,0.00,Wunderground v.1.15,2013-02-12 22:09:00,
2013-02-12 17:14:00,33.9,26.2,29.98,WSW,250,11.0,12.0,73,0.00,,,0.00,Wunderground v.1.15,2013-02-12 22:14:00,
2013-02-12 17:19:00,33.9,25.8,29.98,WSW,247,11.0,11.0,72,0.00,,,0.00,Wunderground v.1.15,2013-02-12 22:19:00,
2013-02-12 17:29:00,33.9,26.2,29.98,WSW,250,9.0,9.0,73,0.00,,,0.00,Wunderground v.1.15,2013-02-12 22:29:00,
2013-02-12 17:34:00,33.9,26.2,29.98,WSW,246,10.0,10.0,73,0.00,,,0.00,Wunderground v.1.15,2013-02-12 22:34:00,
2013-02-12 17:39:00,33.8,26.4,29.98,SW,215,8.0,11.0,74,0.00,,,0.00,Wunderground v.1.15,2013-02-12 22:39:00,
2013-02-12 17:44:00,33.8,26.4,29.98,WSW,248,7.0,11.0,74,0.00,,,0.00,Wunderground v.1.15,2013-02-12 22:44:00,
2013-02-12 17:54:00,33.8,26.4,29.98,WSW,238,7.0,7.0,74,0.00,,,0.00,Wunderground v.1.15,2013-02-12 22:54:00,
2013-02-12 17:59:00,33.8,26.7,29.98,WSW,238,6.0,6.0,75,0.00,,,0.00,Wunderground v.1.15,2013-02-12 22:59:00,
2013-02-12 18:04:00,33.9,26.5,29.98,WSW,241,6.0,6.0,74,0.00,,,0.00,Wunderground v.1.15,2013-02-12 23:04:00,
2013-02-12 18:09:00,33.8,27.0,29.98,WSW,240,5.0,5.0,76,0.00,,,0.00,Wunderground v.1.15,2013-02-12 23:09:00,
2013-02-12 18:19:00,33.8,27.0,29.98,WSW,243,5.0,5.0,76,0.00,,,0.00,Wunderground v.1.15,2013-02-12 23:19:00,
2013-02-12 18:24:00,33.8,27.0,29.97,WSW,242,4.0,5.0,76,0.00,,,0.00,Wunderground v.1.15,2013-02-12 23:24:00,
2013-02-12 18:34:00,33.5,26.7,29.97,WSW,243,3.0,3.0,76,0.00,,,0.00,Wunderground v.1.15,2013-02-12 23:34:00,
2013-02-12 18:39:00,33.5,27.1,29.97,WSW,244,3.0,5.0,77,0.00,,,0.00,Wunderground v.1.15,2013-02-12 23:39:00,
2013-02-12 18:44:00,33.5,27.1,29.97,WSW,244,4.0,5.0,77,0.00,,,0.00,Wunderground v.1.15,2013-02-12 23:44:00,
2013-02-12 18:54:00,33.7,26.9,29.97,WSW,244,3.0,4.0,76,0.00,,,0.00,Wunderground v.1.15,2013-02-12 23:54:00,
2013-02-12 18:59:00,33.6,26.8,29.97,WSW,244,3.0,3.0,76,0.00,,,0.00,Wunderground v.1.15,2013-02-12 23:59:00,
2013-02-12 19:09:00,33.4,27.0,29.96,WSW,244,1.0,1.0,77,0.00,,,0.00,Wunderground v.1.15,2013-02-13 00:09:00,
2013-02-12 19:14:00,33.3,26.9,29.96,WSW,244,1.0,1.0,77,0.00,,,0.00,Wunderground v.1.15,2013-02-13 00:14:00,
2013-02-12 19:24:00,33.1,27.3,29.96,WSW,244,0.0,1.0,79,0.00,,,0.00,Wunderground v.1.15,2013-02-13 00:24:00,
2013-02-12 19:29:00,33.0,27.5,29.97,WSW,244,1.0,3.0,80,0.00,,,0.00,Wunderground v.1.15,2013-02-13 00:29:00,
2013-02-12 19:34:00,32.9,27.4,29.96,WSW,245,2.0,4.0,80,0.00,,,0.00,Wunderground v.1.15,2013-02-13 00:34:00,
2013-02-12 19:39:00,32.9,27.4,29.96,WSW,246,3.0,4.0,80,0.00,,,0.00,Wunderground v.1.15,2013-02-13 00:39:00,
2013-02-12 19:44:00,32.8,27.3,29.96,WSW,257,4.0,4.0,80,0.00,,,0.00,Wunderground v.1.15,2013-02-13 00:44:00,
2013-02-12 19:54:00,32.8,27.3,29.96,WNW,288,4.0,6.0,80,0.00,,,0.00,Wunderground v.1.15,2013-02-13 00:54:00,
2013-02-12 19:59:00,32.9,26.8,29.96,WNW,298,6.0,6.0,78,0.00,,,0.00,Wunderground v.1.15,2013-02-13 00:59:00,
2013-02-12 20:09:00,32.9,26.8,29.96,NW,311,6.0,6.0,78,0.00,,,0.00,Wunderground v.1.15,2013-02-13 01:09:00,
2013-02-12 20:14:00,32.9,26.8,29.96,NW,319,6.0,8.0,78,0.00,,,0.00,Wunderground v.1.15,2013-02-13 01:14:00,
2013-02-12 20:19:00,32.8,26.7,29.96,NW,319,5.0,5.0,78,0.00,,,0.00,Wunderground v.1.15,2013-02-13 01:19:00,
2013-02-12 20:29:00,32.7,26.6,29.96,NW,318,4.0,4.0,78,0.00,,,0.00,Wunderground v.1.15,2013-02-13 01:29:00,
2013-02-12 20:34:00,32.6,26.8,29.96,NW,318,3.0,4.0,79,0.00,,,0.00,Wunderground v.1.15,2013-02-13 01:34:00,
2013-02-12 20:39:00,32.5,26.7,29.95,NW,319,3.0,5.0,79,0.00,,,0.00,Wunderground v.1.15,2013-02-13 01:39:00,
2013-02-12 20:44:00,32.4,26.3,29.96,NW,319,4.0,5.0,78,0.00,,,0.00,Wunderground v.1.15,2013-02-13 01:44:00,
2013-02-12 20:49:00,32.4,26.3,29.96,NW,319,4.0,4.0,78,0.00,,,0.00,Wunderground v.1.15,2013-02-13 01:49:00,
2013-02-12 20:59:00,32.3,25.9,29.95,NW,313,3.0,4.0,77,0.00,,,0.00,Wunderground v.1.15,2013-02-13 01:59:00,
2013-02-12 21:09:00,32.2,26.1,29.95,NW,313,4.0,4.0,78,0.00,,,0.00,Wunderground v.1.15,2013-02-13 02:09:00,
2013-02-12 21:14:00,32.1,26.0,29.95,NW,313,4.0,4.0,78,0.00,,,0.00,Wunderground v.1.15,2013-02-13 02:14:00,
2013-02-12 21:24:00,31.9,25.8,29.95,NW,313,3.0,4.0,78,0.00,,,0.00,Wunderground v.1.15,2013-02-13 02:24:00,
2013-02-12 21:29:00,31.8,26.0,29.94,NW,313,2.0,3.0,79,0.00,,,0.00,Wunderground v.1.15,2013-02-13 02:29:00,
2013-02-12 21:34:00,31.7,25.9,29.94,NW,313,2.0,3.0,79,0.00,,,0.00,Wunderground v.1.15,2013-02-13 02:34:00,
2013-02-12 21:39:00,31.6,26.1,29.94,NW,313,2.0,2.0,80,0.00,,,0.00,Wunderground v.1.15,2013-02-13 02:39:00,
2013-02-12 21:49:00,31.6,25.8,29.94,NW,313,2.0,3.0,79,0.00,,,0.00,Wunderground v.1.15,2013-02-13 02:49:00,
2013-02-12 21:54:00,31.5,26.0,29.94,NW,313,3.0,5.0,80,0.00,,,0.00,Wunderground v.1.15,2013-02-13 02:54:00,
2013-02-12 21:59:00,31.4,25.6,29.93,NW,304,4.0,4.0,79,0.00,,,0.00,Wunderground v.1.15,2013-02-13 02:59:00,
2013-02-12 22:09:00,31.3,25.2,29.94,WNW,293,7.0,7.0,78,0.00,,,0.00,Wunderground v.1.15,2013-02-13 03:09:00,
2013-02-12 22:14:00,31.3,25.2,29.94,WNW,293,6.0,7.0,78,0.00,,,0.00,Wunderground v.1.15,2013-02-13 03:14:00,
2013-02-12 22:19:00,31.2,25.1,29.94,WNW,291,6.0,7.0,78,0.00,,,0.00,Wunderground v.1.15,2013-02-13 03:19:00,
2013-02-12 22:29:00,31.1,24.7,29.94,WNW,288,5.0,5.0,77,0.00,,,0.00,Wunderground v.1.15,2013-02-13 03:29:00,
2013-02-12 22:34:00,31.0,24.6,29.93,WNW,284,5.0,5.0,77,0.00,,,0.00,Wunderground v.1.15,2013-02-13 03:34:00,
2013-02-12 22:39:00,30.8,24.7,29.93,WNW,286,5.0,5.0,78,0.00,,,0.00,Wunderground v.1.15,2013-02-13 03:39:00,
2013-02-12 22:49:00,30.5,24.5,29.94,WNW,284,5.0,5.0,78,0.00,,,0.00,Wunderground v.1.15,2013-02-13 03:49:00,
2013-02-12 22:54:00,30.5,24.5,29.93,WNW,284,5.0,6.0,78,0.00,,,0.00,Wunderground v.1.15,2013-02-13 03:54:00,
2013-02-12 22:59:00,30.3,24.3,29.93,WNW,283,5.0,6.0,78,0.00,,,0.00,Wunderground v.1.15,2013-02-13 03:59:00,
2013-02-12 23:09:00,30.3,24.3,29.93,WNW,291,6.0,7.0,78,0.00,,,0.00,Wunderground v.1.15,2013-02-13 04:09:00,
2013-02-12 23:14:00,30.3,24.0,29.93,WNW,290,6.0,8.0,77,0.00,,,0.00,Wunderground v.1.15,2013-02-13 04:14:00,
2013-02-12 23:19:00,30.2,24.2,29.93,WNW,295,6.0,6.0,78,0.00,,,0.00,Wunderground v.1.15,2013-02-13 04:19:00,
2013-02-12 23:29:00,30.0,24.0,29.93,WNW,303,5.0,7.0,78,0.00,,,0.00,Wunderground v.1.15,2013-02-13 04:29:00,
2013-02-12 23:34:00,30.1,23.8,29.93,WNW,303,6.0,7.0,77,0.00,,,0.00,Wunderground v.1.15,2013-02-13 04:34:00,
2013-02-12 23:39:00,30.1,23.8,29.93,WNW,301,6.0,8.0,77,0.00,,,0.00,Wunderground v.1.15,2013-02-13 04:39:00,
2013-02-12 23:44:00,30.1,23.8,29.93,WNW,294,6.0,8.0,77,0.00,,,0.00,Wunderground v.1.15,2013-02-13 04:44:00,
2013-02-12 23:54:00,30.0,24.0,29.93,WNW,298,6.0,8.0,78,0.00,,,0.00,Wunderground v.1.15,2013-02-13 04:54:00,
2013-02-12 23:59:00,30.0,23.7,29.93,WNW,292,7.0,7.0,77,0.00,,,0.00,Wunderground v.1.15,2013-02-13 04:59:00,